User: anonymous
Location: Hamburg
(53.5500°N, 10.0000°E)
Time: 11:23:14
(UTC+02:00)
Language:

Courier 1B - Orbit

View from above orbital plane
View from above orbital plane
View from above satellite
View from above satellite

Ground track
Ground track

The orbit data is extracted from the following two-line orbital elements,

1 00058U 60013A   14107.13488953  .00000119  00000-0  50887-4 0  6458
2 00058 028.3291 005.9933 0165150 134.3027 227.1191 13.46275063635269
Epoch (UTC): 17 April 2014 03:14:14
Eccentricity: 0.0165150
inclination: 28.3291°
perigee height: 963 km
apogee height: 1209 km
right ascension of ascending node: 5.9933°
argument of perigee: 134.3027°
revolutions per day: 13.46275063
mean anomaly at epoch: 227.1191°
orbit number at epoch: 63526

The dashed part of the orbit path shows where the satellite is in the earth's shadow,  

DLR